TimeCDT,TemperatureF,Dew PointF,Humidity,Sea Level PressureIn,VisibilityMPH,Wind Direction,Wind SpeedMPH,Gust SpeedMPH,PrecipitationIn,Events,Conditions,WindDirDegrees,DateUTC
12:15 AM,68.0,62.6,83,29.99,10.0,SW,8.1,-,N/A,,Clear,220,2013-10-02 05:15:00
12:35 AM,66.2,62.6,88,29.99,7.0,SW,8.1,-,N/A,,Clear,230,2013-10-02 05:35:00
12:55 AM,66.2,62.6,88,30.00,7.0,SW,6.9,-,N/A,,Clear,230,2013-10-02 05:55:00
1:15 AM,64.4,62.6,94,30.01,7.0,SW,5.8,-,N/A,,Clear,230,2013-10-02 06:15:00
1:35 AM,64.4,62.6,94,30.01,7.0,SW,5.8,-,N/A,,Clear,230,2013-10-02 06:35:00
1:55 AM,64.4,62.6,94,30.02,7.0,SW,4.6,-,N/A,,Clear,230,2013-10-02 06:55:00
2:15 AM,64.4,62.6,94,30.02,7.0,WSW,5.8,-,N/A,,Mostly Cloudy,240,2013-10-02 07:15:00
2:35 AM,66.2,62.6,88,30.02,7.0,WSW,5.8,-,N/A,,Overcast,240,2013-10-02 07:35:00
2:55 AM,64.4,62.6,94,30.02,7.0,SW,4.6,-,N/A,,Overcast,230,2013-10-02 07:55:00
3:15 AM,64.4,62.6,94,30.03,5.0,SW,3.5,-,N/A,,Mostly Cloudy,220,2013-10-02 08:15:00
3:35 AM,64.4,62.6,94,30.03,5.0,Calm,Calm,-,N/A,,Overcast,0,2013-10-02 08:35:00
3:55 AM,64.4,62.6,94,30.03,5.0,WSW,3.5,-,N/A,,Overcast,240,2013-10-02 08:55:00
4:15 AM,66.2,62.6,88,30.04,5.0,Calm,Calm,-,N/A,,Overcast,0,2013-10-02 09:15:00
4:35 AM,66.2,62.6,88,30.04,5.0,Calm,Calm,-,N/A,,Overcast,0,2013-10-02 09:35:00
4:55 AM,64.4,62.6,94,30.04,5.0,West,3.5,-,N/A,,Mostly Cloudy,280,2013-10-02 09:55:00
5:15 AM,64.4,62.6,94,30.04,5.0,Calm,Calm,-,N/A,,Mostly Cloudy,0,2013-10-02 10:15:00
5:35 AM,64.4,62.6,94,30.05,4.0,Calm,Calm,-,N/A,,Overcast,0,2013-10-02 10:35:00
5:55 AM,64.4,62.6,94,30.05,4.0,Calm,Calm,-,N/A,,Overcast,0,2013-10-02 10:55:00
6:15 AM,64.4,62.6,94,30.06,3.0,Calm,Calm,-,N/A,,Overcast,0,2013-10-02 11:15:00
6:35 AM,62.6,62.6,100,30.06,3.0,Calm,Calm,-,N/A,,Overcast,0,2013-10-02 11:35:00
6:55 AM,62.6,62.6,100,30.07,1.2,Calm,Calm,-,N/A,,Mostly Cloudy,0,2013-10-02 11:55:00
7:15 AM,62.6,62.6,100,30.07,1.5,Calm,Calm,-,N/A,,Overcast,0,2013-10-02 12:15:00
7:35 AM,62.6,60.8,94,30.08,3.0,Calm,Calm,-,N/A,,Overcast,0,2013-10-02 12:35:00
7:55 AM,64.4,60.8,88,30.09,5.0,Calm,Calm,-,N/A,,Overcast,0,2013-10-02 12:55:00
8:15 AM,64.4,60.8,88,30.09,7.0,Calm,Calm,-,N/A,,Overcast,0,2013-10-02 13:15:00
8:35 AM,64.4,59.0,83,30.10,10.0,Calm,Calm,-,N/A,,Scattered Clouds,0,2013-10-02 13:35:00
8:55 AM,68.0,57.2,68,30.10,10.0,Calm,Calm,-,N/A,,Clear,0,2013-10-02 13:55:00
9:15 AM,68.0,51.8,56,30.10,10.0,NE,3.5,-,N/A,,Scattered Clouds,50,2013-10-02 14:15:00
9:35 AM,69.8,48.2,46,30.10,10.0,NNE,4.6,-,N/A,,Clear,30,2013-10-02 14:35:00
9:55 AM,69.8,50.0,49,30.11,10.0,NE,4.6,-,N/A,,Clear,40,2013-10-02 14:55:00
10:15 AM,71.6,46.4,41,30.10,10.0,East,5.8,-,N/A,,Clear,80,2013-10-02 15:15:00
10:35 AM,71.6,46.4,41,30.10,10.0,ENE,3.5,-,N/A,,Clear,70,2013-10-02 15:35:00
10:55 AM,73.4,46.4,38,30.10,10.0,East,3.5,-,N/A,,Clear,90,2013-10-02 15:55:00
11:15 AM,73.4,46.4,38,30.10,10.0,ENE,3.5,-,N/A,,Clear,60,2013-10-02 16:15:00
11:35 AM,73.4,46.4,38,30.10,10.0,Calm,Calm,-,N/A,,Clear,0,2013-10-02 16:35:00
11:55 AM,75.2,46.4,36,30.09,10.0,ESE,4.6,-,N/A,,Clear,110,2013-10-02 16:55:00
12:15 PM,77.0,48.2,36,30.09,10.0,Calm,Calm,-,N/A,,Clear,0,2013-10-02 17:15:00
12:35 PM,73.4,53.6,50,30.08,10.0,North,6.9,-,N/A,,Clear,350,2013-10-02 17:35:00
12:55 PM,73.4,53.6,50,30.08,10.0,North,9.2,-,N/A,,Clear,350,2013-10-02 17:55:00
1:15 PM,71.6,51.8,50,30.07,10.0,North,8.1,-,N/A,,Clear,10,2013-10-02 18:15:00
1:35 PM,71.6,50.0,46,30.07,10.0,North,8.1,-,N/A,,Clear,350,2013-10-02 18:35:00
1:55 PM,73.4,50.0,44,30.06,10.0,North,8.1,-,N/A,,Clear,350,2013-10-02 18:55:00
2:15 PM,71.6,50.0,46,30.06,10.0,North,8.1,-,N/A,,Clear,360,2013-10-02 19:15:00
2:35 PM,71.6,50.0,46,30.06,10.0,North,6.9,-,N/A,,Clear,360,2013-10-02 19:35:00
2:55 PM,71.6,46.4,41,30.05,10.0,North,6.9,-,N/A,,Clear,360,2013-10-02 19:55:00
3:15 PM,71.6,50.0,46,30.05,10.0,North,5.8,-,N/A,,Clear,350,2013-10-02 20:15:00
3:35 PM,71.6,50.0,46,30.04,10.0,North,6.9,-,N/A,,Clear,10,2013-10-02 20:35:00
3:55 PM,71.6,48.2,43,30.04,10.0,North,4.6,-,N/A,,Clear,350,2013-10-02 20:55:00
4:15 PM,71.6,50.0,46,30.03,10.0,North,5.8,-,N/A,,Clear,360,2013-10-02 21:15:00
4:35 PM,69.8,50.0,49,30.03,10.0,North,6.9,-,N/A,,Clear,360,2013-10-02 21:35:00
4:55 PM,69.8,51.8,53,30.02,10.0,North,5.8,-,N/A,,Clear,10,2013-10-02 21:55:00
5:15 PM,68.0,50.0,52,30.03,10.0,North,4.6,-,N/A,,Clear,10,2013-10-02 22:15:00
5:35 PM,68.0,50.0,52,30.03,10.0,Calm,Calm,-,N/A,,Clear,0,2013-10-02 22:35:00
5:55 PM,64.4,50.0,59,30.03,10.0,North,3.5,-,N/A,,Clear,360,2013-10-02 22:55:00
6:15 PM,62.6,50.0,63,30.04,10.0,Calm,Calm,-,N/A,,Clear,0,2013-10-02 23:15:00
6:35 PM,62.6,51.8,68,30.04,10.0,Calm,Calm,-,N/A,,Mostly Cloudy,0,2013-10-02 23:35:00
6:55 PM,62.6,51.8,68,30.04,10.0,Calm,Calm,-,N/A,,Mostly Cloudy,0,2013-10-02 23:55:00
7:15 PM,60.8,51.8,72,30.03,10.0,Calm,Calm,-,N/A,,Scattered Clouds,0,2013-10-03 00:15:00
7:35 PM,60.8,51.8,72,30.03,10.0,Calm,Calm,-,N/A,,Scattered Clouds,0,2013-10-03 00:35:00
7:55 PM,60.8,53.6,77,30.03,10.0,Calm,Calm,-,N/A,,Mostly Cloudy,0,2013-10-03 00:55:00
8:15 PM,59.0,53.6,82,30.03,10.0,Calm,Calm,-,N/A,,Scattered Clouds,0,2013-10-03 01:15:00
8:35 PM,59.0,53.6,82,30.03,10.0,Calm,Calm,-,N/A,,Clear,0,2013-10-03 01:35:00
8:55 PM,59.0,53.6,82,30.03,10.0,Calm,Calm,-,N/A,,Clear,0,2013-10-03 01:55:00
9:15 PM,59.0,53.6,82,30.03,10.0,Calm,Calm,-,N/A,,Scattered Clouds,0,2013-10-03 02:15:00
9:35 PM,59.0,53.6,82,30.04,10.0,Calm,Calm,-,N/A,,Clear,0,2013-10-03 02:35:00
9:55 PM,59.0,53.6,82,30.04,10.0,Calm,Calm,-,N/A,,Scattered Clouds,0,2013-10-03 02:55:00
10:15 PM,59.0,53.6,82,30.04,10.0,Calm,Calm,-,N/A,,Scattered Clouds,0,2013-10-03 03:15:00
10:35 PM,59.0,53.6,82,30.03,10.0,Calm,Calm,-,N/A,,Clear,0,2013-10-03 03:35:00
10:55 PM,59.0,55.4,88,30.03,10.0,Calm,Calm,-,N/A,,Clear,0,2013-10-03 03:55:00
11:15 PM,57.2,53.6,88,30.03,10.0,Calm,Calm,-,N/A,,Clear,0,2013-10-03 04:15:00
11:35 PM,59.0,55.4,88,30.02,10.0,Calm,Calm,-,N/A,,Clear,0,2013-10-03 04:35:00
11:55 PM,57.2,55.4,94,30.02,10.0,Calm,Calm,-,N/A,,Clear,0,2013-10-03 04:55:00